INMARSAT 4-F3

Last updated on Sat Sep 12 2026 00:03:00 GMT+0000 (Coordinated Universal Time)

1 33278U 08039A 26254.61671840 -.00000155 00000+0 00000+0 0 9995 2 33278 4.3762 31.7431 0003038 165.2424 277.6992 1.00275771 47412
UTC large
Height (km)
Speed (km/s)
/
Latitude / Longitude
Inclination (degrees)
Orbital Period (minutes)
Azimuth
Elevation
Range (km)
Doppler Factor

Next 0 passes for location: London (51.5072 / 0.1276)

No passes found over London.
INMARSAT 4-F3